www.pogodaiklimat.ru

Погода и климат >> Архив погоды >> Россия >> Нижегородская область >> Выкса


ПОГОДА в Выксе

  • Прогноз погоды в Выксе
  • Монитор погоды в Выксе

АРХИВ ПОГОДЫ в Выксе

Время (UTC), дата Ветер
(напр.,м/с)
 
Видим.   Явления Облачность Т
(С)
Тd
(С)
f
(%)
Тe
(С)
Тes
(С)
Комфортность P
(гПа)
Po
(гПа)
Тmin
(С)
Tmax
(С)
R
(мм)
R24
(мм)
S
(см)
09 16.08 В 1-3
{5}
10 км слаб. дождь 10/10 270 м
[Sc diur, vesp]
+17.4 +16.7 96 +18 +18 1011.6 998.3
12 16.08 штиль 0
{5}
10 км слаб. дождь 10/10 360 м
[Sc]
+18.4 +17.1 92 +19 +19 1013.5 1000.2
15 16.08 С 1-2
{4}
10 км слаб. дождь 10/0 180 м
[As op]
+17.6 +16.8 95 +19 +19 1013.3 1000.0 +18.4 3
18 16.08 С 2-4
{4}
10 км {дождь} 10/0 180 м
[As op]
+16.9 +16.0 94 +17 +17 1013.4 1000.0
21 16.08 С 2-4
{5}
10 км 10/0 180 м
[As op]
+16.6 +15.8 95 +17 +17 1014.2 1000.8
00 17.08 СВ 3-6
{6}
10 км 10/0 180 м
[As op]
+15.7 +16 +16 1014.6 1001.2
03 17.08 СВ 2-4
{5}
10 км 10/0 200 м
[As op]
+16.6 +15.8 95 +17 +17 1014.6 1001.2 +16.4 0.0
06 17.08 СВ 3-6
{7}
10 км в посл. час дождь 10/10 240 м
[Sc]
+18.0 +17.0 94 +18 +18 1013.1 999.8
09 17.08 СВ 2-4
{6}
10 км слаб. дождь 10/0 180 м
[As op]
+18.5 +17.5 94 +20 +22 1013.6 1000.3
12 17.08 СВ 3-6
{6}
10 км слаб. дождь 10/0 240 м
[As op]
+18.9 +17.7 93 +21 +22 комфорт 1013.4 1000.2
15 17.08 В 4-7
{9}
4000 м слаб. дождь 10/0 270 м
[As op]
+18.6 +17.6 94 +19 +20 1013.0 999.7 +18.9 11
18 17.08 СВ 3-5
{9}
10 км слаб. дождь 10/10 300 м
[Sc]
+18.7 +17.6 93 +20 +20 1011.7 998.4
21 17.08 СВ 2-5
{6}
10 км в посл. час дождь 10/10 420 м
[Sc]
+18.8 +17.8 94 +21 +21 комфорт 1011.3 998.1
00 18.08 СВ 2-6
{7}
10 км {дождь} 10/10 400 м
[Sc]
+18.5 +17.5 94 +20 +20 1010.3 997.0
03 18.08 СВ 2-4
{8}
10 км 6/0
[Ac cast Cc]
+18.0 +16.7 92 +19 +19 1009.3 996.0 +17.9 4
06 18.08 ЮВ 2-4
{5}
10 км ясно +21.9 +17.5 76 +26 +33 душно 1009.1 996.0
09 18.08 Ю 2-4
{5}
10 км 6/6 1000 м
[Cu hum]
+24.9 +16.1 58 +28 +33 жарко 1009.7 996.7
12 18.08 -06
{06}
н/о +16.9 1011.1 998.1
15 18.08 Ю 2-5
{8}
10 км 6/0
[Ac trans]
+22.1 +15.8 67 +26 +27 душно 1012.7 999.6 +25.3
18 18.08 ЮВ 1-1
{5}
10 км 6/0
[Ci fib]
+17.5 +16.4 93 +19 +19 1013.6 1000.3
21 18.08 В 1-2
{2}
10 км 6/0
[Ac trans]
+16.7 +15.9 95 +18 +18 1013.4 1000.0
00 19.08 В 1-2
{5}
10 км 10/0
[Ac As]
+17.2 +16.2 94 +18 +18 1013.6 1000.3
03 19.08 Ю 1-1
{3}
10 км в посл. час дождь 6/0
[Ac trans Ci fib]
+16.6 +15.6 94 +17 +18 1014.8 1001.4 +16.5 1
06 19.08 Ю 2-4
{5}
10 км {дождь} 6/6 600 м
[Cb cap]
+20.0 +14.1 69 +23 +25 комфорт 1015.6 1002.4
09 19.08 ЮЗ 3-5
{6}
10 км 8/8 600 м
[Cb cap]
+21.4 +13.8 62 +24 +26 комфорт 1016.2 1003.0
12 19.08 Ю 2-5
{7}
10 км 9/9 600 м
[Cb cap]
+21.1 +14.2 65 +24 +24 комфорт 1016.5 1003.2
15 19.08 ЮЗ 2-4
{5}
10 км 6/3 600 м
[Cb cap Ac trans]
+20.7 +14.3 67 +24 +24 комфорт 1017.2 1003.9 +21.4
18 19.08 Ю 1-2
{4}
10 км 6/0
[Ac trans]
+16.7 +15.1 90 +18 +18 1018.3 1004.8
21 19.08 штиль 0
{3}
10 км ясно +15.5 +14.1 91 +15 +15 1018.8 1005.3
00 20.08 ЮЗ 1-1
{3}
10 км ясно +12.6 +12.1 97 +12 +12 1019.4 1005.7
03 20.08 штиль 0
{3}
2000 м дымка 10/10 270 м
[St]
+12.8 +12.1 96 +12 +12 1020.6 1006.9 +12.5
06 20.08 штиль 0
{2}
10 км ясно +20.7 +15.7 73 +24 +32 комфорт 1021.4 1008.0
09 20.08 З 2-4
{5}
10 км 8/8 1000 м
[Cu med, cong]
+22.8 +14.3 59 +26 +29 жарко 1021.3 1008.0
12 20.08 З 2-3
{5}
10 км 8/8 1000 м
[Cu med, cong]
+23.8 +14.8 57 +27 +28 жарко 1022.1 1008.9
15 20.08 З 2-3
{3}
10 км 3/0
[Ac trans]
+24.7 +13.6 50 +27 +28 жарко 1022.1 1008.9 +24.7
18 20.08 З 1-2
{3}
10 км 4/0
[Ci sp]
+17.3 +15.2 87 +18 +18 1022.6 1009.1
21 20.08 ЮВ 2-2
{2}
10 км ясно +14.9 +14.0 94 +15 +15 1023.2 1009.6
00 21.08 штиль 0
{2}
10 км ясно +13.6 +12.8 95 +13 +13 1024.6 1011.0
03 21.08 ЮВ 2-3
{3}
10 км ясно +15.0 +14.1 94 +15 +15 1024.6 1011.0 +13.5
06 21.08 З 1-2
{3}
10 км 6/0
[Ci fib]
+23.4 +16.9 67 +29 +35 душно 1023.1 1009.9
09 21.08 СЗ 2-4
{4}
10 км 8/0
[Ci]
+26.6 +18.3 60 +31 +41 душно 1022.9 1009.9
12 21.08 СЗ 2-4
{6}
10 км 8/6 600 м
[Cu med, cong Ci]
+27.3 +18.1 57 +32 +34 очень
душно
1023.1 1010.1
15 21.08 С 3-4
{6}
10 км 8/3 1000 м
[Cu hum Ci fib]
+26.2 +17.7 60 +31 +31 очень
душно
1022.9 1009.8 +27.3
18 21.08 С 1-3
{5}
10 км 8/0
[Ci fib]
+21.3 +17.7 80 +25 +25 комфорт 1023.3 1010.0
21 21.08 штиль 0
{3}
10 км ясно +17.3 +16.3 94 +17 +17 1023.1 1009.6
00 22.08 З 1-1
{1}
10 км ясно +16.3 +15.4 94 +17 +17 1023.0 1009.4
03 22.08 штиль 0
{1}
10 км 3/0
[Ac cast]
+16.6 +15.8 95 +16 +17 1022.7 1009.1 +16.2
06 22.08 Ю 2-4
{4}
10 км ясно +23.7 +18.1 71 +28 +34 душно 1021.5 1008.3
09 22.08 Ю 2-5
{7}
10 км 4/4 1000 м
[Cu hum]
+27.1 +16.9 54 +31 +38 душно 1019.9 1006.9
12 22.08 Ю 2-6
{6}
10 км 3/3 1000 м
[Cu hum]
+28.5 +15.7 46 +32 +37 душно 1019.6 1006.6
15 22.08 ЮЗ 2-4
{8}
10 км 3/3 1000 м
[Cu hum]
+27.7 +15.9 49 +31 +31 душно 1018.6 1005.6 +28.5
18 22.08 СЗ 6-10
{13}
10 км 9/9 600 м
[Sc]
+19.6 +16.3 81 +21 +21 комфорт 1021.7 1008.3
21 22.08 СЗ 3-4
{11}
10 км в посл. час гроза {ливн. осадки} 10/10 300 м
[Cb cap]
+15.8 +14.2 90 +15 +15 1024.2 1010.6
00 23.08 СЗ 3-4
{5}
10 км {гроза, ливн. осадки} 4/0
[Ac trans]
+14.4 +13.3 93 +13 +13 1024.9 1011.1
03 23.08 З 2-2
{4}
10 км {дождь} 6/0
[Ac As]
+11.9 +11.1 95 +11 +11 1026.4 1012.6 +11.8 2

 

Местоположение метеостанции Выкса (Нижегородская область, Россия): широта 55.33 долгота 42.12 высота над уровнем моря 114 м.

В архиве по умолчанию представлена погода в Выксе за последнюю неделю. Архивные данные за месяц целиком и за предыдущие месяцы, начиная с января 2011 года, Вы можете получить, выбрав интересующий диапазон дат из раскрывающегося списка и нажав кнопку "Ввод!".


*Определитесь, кто Вы:
робот инопланетянин человек

Внимание! Время в таблицах - всемирное. Для получения местного времени необходимо прибавить поправку, которая равна 3 ч.

Смотрите также архив погоды в соседних городах и на ближайших метеорологических станциях:

Погода в Муроме (Владимирская область, Россия) (31 км)
Погода в Елатьме (Рязанская область, Россия) (48 км)
Погода в Павлово (Нижегородская область, Россия) (90 км)
Погода в Вязниках (Владимирская область, Россия) (97 км)
Погода в Гусь-Хрустальный (Владимирская область, Россия) (97 км)
Погода в Туме (Рязанская область, Россия) (102 км)
Погода в Арзамасе (Нижегородская область, Россия) (105 км)
Погода в Темникове (Мордовия, Россия) (105 км)
Погода в Сасово (Рязанская область, Россия) (109 км)
Погода в Коврове (Владимирская область, Россия) (124 км)

Пояснения к столбцам:

Ветер - указаны скорость ветра в м/с - средняя за 10 мин, порывы в срок и между сроками (в фигурных скобках) и направление, откуда дует ветер: С - северный, СВ - северо-восточный, В - восточный, ЮВ - юго-восточный, Ю - южный, ЮЗ - юго-западный, З - западный, СЗ - северо-западный.
Видимость - горизонтальная дальность видимости в метрах или километрах. При видимости от 1 до 10 км при отсутствии осадков обычно наблюдается дымка, при ухудшении видимости до 1 км и менее - туман. В сухую погоду видимость может ухудшаться дымом, пылью или мглою.
Явления - указаны атмосферные явления, наблюдавшиеся в срок или в последний час перед сроком; фигурными скобками обозначены явления, наблюдавшиеся между сроками (за 1-3 часа до срока); квадратными скобками обозначены град или гололедные отложения с указанием их диаметра в мм.
Облачность - указаны через наклонную черту общая и нижняя облачность в баллах и высота нижней границы облаков в метрах; квадратными скобками обозначены формы облаков: Ci - перистые, Cs - перисто-слоистые, Cc - перисто-кучевые, Ac - высококучевые, As - высокослоистые, Sc - слоисто-кучевые, Ns - слоисто-дождевые, Cu - кучевые, Cb - кучево-дождевые. Подробнее классификацию облаков см. в Атласе облаков (PDF).
T - Температура воздуха - температура, измеренная на высоте 2 м над землей.
Td - Температура точки росы - температура, при понижении до которой содержащийся в воздухе водяной пар достигнет насыщения.
f - Относительная влажность воздуха - влажноcть воздуха, измеренная на высоте 2 м над землей.
Te - Эффективная температура - температура, которую ощущает одетый по сезону человек в тени. Характеристика душности погоды. При расчете учитывается влияние влажности воздуха и скорости ветра на теплоощущения человека.
Tes - Эффективная температура на солнце - температура, которую ощущает человек, с поправкой на солнечный нагрев. Характеристика знойности погоды. Зависит от высоты солнца над горизонтом, облачности и скорости ветра. Ночью, в пасмурную погоду, а также при ветре 12 м/с и более поправка равна нулю.
P - Атмосферное давление - приведенное к уровню моря атмосферное давление.
Po - Атмосферное давление - измеренное на уровне метеостанции атмосферное давление.
Tmin - Минимальная температура - минимум температуры воздуха на высоте 2 м над землей.
Tmax - Максимальная температура - максимум температуры воздуха на высоте 2 м над землей.
R - Количество осадков - Количество выпавших осадков за период времени, мм. При наведении курсора мыши на число - период времени, за который выпало указанное количество осадков.
R24 - Количество осадков - Количество выпавших осадков за 24 часа, мм.
S - Снежный покров - Высота снежного покрова, см. При наведении курсора мыши на число - состояние снежного покрова и степень покрытия местности в баллах.